{"data":{"norad_id":87159,"epoch":"2026-09-18T06:48:06.706944Z","epoch_age_seconds":209676,"freshness":"STALE","line1":"1 87159U          26261.28341096  .00000788  00000+0  90217-3 0  9994","line2":"2 87159  90.3463  79.4981 0104285 146.4609 214.3212 13.66704791594866","mean_motion":13.66704791,"eccentricity":0.0104285,"inclination_deg":90.3463,"raan_deg":79.4981,"arg_perigee_deg":146.4609,"mean_anomaly_deg":214.3212,"bstar":0.00090217,"rev_number":59486,"period_min":105.36291447009,"perigee_km":934.36294340777,"apogee_km":1088.4870378463,"semimajor_km":7389.561990627,"source":"CELESTRAK","updated_at":"2026-09-20T09:00:32.450516Z"}}